Regional Weather Roundup
Issued by NWS

Home | Current Version | Previous Version | Text Only | Print | Product List | Glossary On
Versions: 1 2 3 4 5 6 7 8 9 10 11 12 13 14 15 16 17 18 19 20 21 22 23 24 25 26 27 28 29 30 31 32 33 34 35 36 37 38 39 40 41 42 43 44 45 46 47 48 49 50
000
ASUS43 KTOP 260508
RWRKS

WEATHER ROUNDUP FOR KANSAS
NATIONAL WEATHER SERVICE GOODLAND KS
1200 AM CDT THU APR 26 2018

NOTE:  "FAIR" INDICATES FEW OR NO CLOUDS BELOW 12,000 FEET WITH NO
SIGNIFICANT WEATHER AND/OR OBSTRUCTIONS TO VISIBILITY.

KSZ001>006-013>018-027>032-041>047-260600-
NORTHWEST KANSAS

CITY           SKY/WX    TMP DP  RH WIND       PRES   REMARKS
GOODLAND       CLEAR     42  32  67 S14       30.00F
HAYS           CLEAR     38  35  89 CALM      30.06F
HILL CITY      CLOUDY    40  35  83 CALM      30.03F
RUSSELL        CLEAR     38  38 100 S9        30.04F
$$

KSZ061>065-074>080-084>089-260600-
SOUTHWEST KANSAS

CITY           SKY/WX    TMP DP  RH WIND       PRES   REMARKS
DODGE CITY     CLEAR     37  32  82 SE6       30.06F
ELKHART        CLEAR     41  35  80 SW12      30.10F
GARDEN CITY    CLEAR     40  34  79 S8        30.05F
GREAT BEND     CLEAR     38  36  92 S5        30.06F
LIBERAL        CLEAR     41  36  82 S9        30.09F
PRATT          CLEAR     40  37  91 CALM      30.07F
$$

KSZ066>073-081>083-090>101-260600-
SOUTHEAST KANSAS

CITY           SKY/WX    TMP DP  RH WIND       PRES   REMARKS
CHANUTE        CLOUDY    50  48  93 N9        30.03F
COFFEYVILLE    CLOUDY    50  48  93 N10       30.02F
HUTCHINSON     CLEAR     35  35 100 CALM      30.06F FOG
MEDICINE LODGE   N/A     41  39  93 CALM      30.07F
NEWTON         CLEAR     42  41  96 N3        30.06F
PARSONS        CLOUDY    49  48  97 N8        30.03F
WICHITA INTL   PTCLDY    45  42  89 N3        30.07F
WICHITA JABRA  CLOUDY    45  44  97 N8        30.06F
WICHITA MCCONL CLOUDY    46  43  89 N7        30.06F
WINFIELD       CLOUDY    47  45  93 NW12      30.07F
$$

KSZ007>012-019>026-033>040-048>060-102>105-260600-
NORTHEAST KANSAS

CITY           SKY/WX    TMP DP  RH WIND       PRES   REMARKS
CONCORDIA      CLEAR     41  38  89 S9        30.03F
EMPORIA        CLEAR     42  41  96 NW7       30.04F FOG
LAWRENCE       FOG       39  39 100 CALM      30.02  VSB 1/4
MANHATTAN      CLEAR     42  39  89 S5        30.05F
MARYSVILLE     CLEAR     39  37  93 CALM      30.02F
OLATHE IND     FOG       45  44  97 CALM      30.03S VSB 1/4
OLATHE EXE     FOG       44  44 100 CALM      30.02F VSB 1/4
SALINA         FOG       38  38 100 S7        30.05F VSB 1/2
TOPEKA BILLARD CLEAR     42  42 100 W5        30.03F FOG
TOPEKA FORBES  CLEAR     45  43  93 W3        30.03F
$$




USA.gov is the U.S. government's official web portal to all federal, state and local government web resources and services.